Location: Équennes
(49.7375°N, 1.9622°E)
Time: 18:25:30
(UTC+00:00)

Cosmos 2278 - Pass Details

Date: 28 September 2023
Orbit: 838 x 853 km, 71.1° (Epoch: 08 December)

Event Time Altitude Azimuth Distance (km) Brightness Sun altitude
Rises 01:14:13 0° 333° (NNW) 3,427 7.2 -38.3°
Reaches altitude 10° 01:16:47 10° 339° (NNW) 2,490 6.5 -38.1°
Enters shadow 01:18:59 23° 350° (N) 1,745 5.7 -37.9°
